Flag for Brazil Weather past 2 weeks in Boa Vista, Roraima, Brazil

Now
73 °F

Sunny.


Feels Like: 74 °F
Forecast: 73 / 89 °F
Wind: 10 mph from Northeast

Location: Boa Vista Aeropor-To

Current Time: Feb 28, 2015 at 8:37:35 AM

Latest Report: Feb 28, 2015 at 8:00 AM


Visibility: 10 mi

Pressure: 29.92 "Hg

Humidity: 78%

Dew point: 66 °F

Location of Boa VistaLocation

Historic Weather in Boa Vista — Graph

°F

Boa Vista temperature yesterday

Maximum temperature yesterday: 88 °F (at 3:00 PM)
Minimum temperature yesterday: 70 °F (at 1:00 AM)
Average temperature yesterday: 78 °F

Past Weeks' High & Low Weather Summary

 TemperatureHumidityPressure
High91 °F (Feb 20, 3:00 PM)94% (Feb 27, 1:00 AM)30.21 "Hg (Feb 27, 1:00 AM)
Low70 °F (Feb 27, 1:00 AM)34% (Feb 20, 3:00 PM)29.74 "Hg (Feb 18, 6:00 PM)
Average81 °F61%29.86 "Hg
* Reported Feb 13 7:00 AM — Feb 28 7:00 AM, Boa Vista, Weather by CustomWeather, © 2015

Note: Actual official high and low records may vary slightly from our data, if they occured in-between our weather recording intervals... More about our weather records

Advertising

Boa Vista weather history for previous 24 hours

 ConditionsComfort  
Time TempWeatherWind HumidityBarometerVisibility
7:00 AM
Sat, Feb 28
73 °FSunny.9 mph83%29.89 "Hg10 mi
6:00 AM73 °FClear.12 mph83%29.86 "Hg10 mi
5:00 AM73 °FClear.10 mph83%29.86 "Hg10 mi
4:00 AM73 °FPassing clouds.10 mph83%29.86 "HgN/A
3:00 AM75 °FClear.7 mph78%29.86 "Hg10 mi
2:00 AM75 °FClear.7 mph78%29.86 "Hg10 mi
1:00 AM75 °FClear.6 mph78%29.86 "Hg10 mi
12:00 AM77 °FClear.9 mph74%29.89 "Hg10 mi
11:00 PM
Fri, Feb 27
79 °FClear.10 mph65%29.89 "Hg10 mi
10:00 PM79 °FClear.3 mph65%29.86 "Hg10 mi
9:00 PM81 °FClear.9 mph62%29.86 "Hg10 mi
8:00 PM82 °FClear.7 mph58%29.83 "Hg10 mi
7:00 PM84 °FPassing clouds.9 mph55%29.80 "HgN/A
6:00 PM86 °FBroken clouds.13 mph49%29.77 "HgN/A
5:00 PM86 °FBroken clouds.10 mph49%29.80 "HgN/A
4:00 PM88 °FBroken clouds.16 mph46%29.80 "HgN/A
3:00 PM88 °FBroken clouds.13 mph46%29.83 "HgN/A
2:00 PM86 °FBroken clouds.18 mph52%29.86 "HgN/A
1:00 PM82 °FBroken clouds.17 mph58%29.92 "HgN/A
12:00 PM82 °FPartly sunny.20 mph62%29.92 "HgN/A
11:00 AM81 °FPartly sunny.20 mph66%29.95 "HgN/A
10:00 AM79 °FPartly sunny.18 mph70%29.98 "HgN/A
9:00 AM75 °FBroken clouds.10 mph83%29.98 "HgN/A
8:00 AM73 °FPartly sunny.8 mph89%29.95 "HgN/A
Weather by CustomWeather, © 2015

See weather overviewHow to use our weather pages